Change the Weather History Date:

Wednesday, December 5, 2012

  Actual Average Record
Temperature  
Mean Temperature 50 °F 37 °F  
Max Temperature 64 °F 46 °F 78 °F (2001)
Min Temperature 35 °F 28 °F 12 °F (1976)
Degree Days  
Heating Degree Days 15 28  
Month to date heating degree days 75 136  
Since 1 July heating degree days 1184 1206  
Cooling Degree Days 0 0  
Month to date cooling degree days 0 0  
Year to date cooling degree days 1145 895  
Moisture  
Dew Point 31 °F    
Average Humidity 53    
Maximum Humidity 67    
Minimum Humidity 38    
Precipitation  
Precipitation 0.00 in 0.11 in 1.51 in (1993)
Month to date precipitation T 0.53  
Year to date precipitation 29.40 36.52  
Sea Level Pressure  
Sea Level Pressure 30.18 in    
Wind  
Wind Speed 12 mph (NW)    
Max Wind Speed 22 mph    
Max Gust Speed 29 mph    
Visibility 10 miles    
Events      
T = Trace of Precipitation, MM = Missing Value Source: NWS Daily Summary

Daily Weather History Graph

Daily Weather History Graph

Search for Another Location

Airport or City:

Trip Planner

Search our weather history database for the weather conditions in past years. The results will help you decide how hot, cold, wet, or windy it might be!

Date:

Astronomy

Dec. 05, 2012 Rise Set
Actual Time 7:17 AM EST 4:48 PM EST
Civil Twilight 6:47 AM EST 5:18 PM EST
Nautical Twilight 6:13 AM EST 5:51 PM EST
Astronomical Twilight 5:41 AM EST 6:24 PM EST
Moon 11:34 PM EST (12/5) 11:41 AM EST (12/5)
Length of Visible Light 10h 30m
Length of Day
9h 31m
Waning Gibbous, 60% of the Moon is Illuminated
Dec 5
Waning Gibbous
Dec 6
Last Quarter
Dec 13
New
Dec 20
First Quarter
Dec 28
Full

Hourly Weather History & Observations

Time (EST) Temp. Windchill Dew Point Humidity Pressure Visibility Wind Dir Wind Speed Gust Speed Precip Events Conditions
12:53 AM 64.0 °F - 46.9 °F 54% 29.98 in 10.0 mi SW 6.9 mph - N/A   Overcast
1:53 AM 57.9 °F - 46.9 °F 67% 30.03 in 10.0 mi NNW 13.8 mph - N/A   Overcast
2:53 AM 55.9 °F - 44.1 °F 64% 30.06 in 10.0 mi NW 11.5 mph - N/A   Overcast
3:53 AM 55.0 °F - 41.0 °F 59% 30.07 in 10.0 mi WNW 12.7 mph - N/A   Scattered Clouds
4:53 AM 54.0 °F - 37.0 °F 53% 30.09 in 10.0 mi WNW 12.7 mph - N/A   Scattered Clouds
5:53 AM 52.0 °F - 34.0 °F 50% 30.12 in 10.0 mi NW 11.5 mph - N/A   Clear
6:53 AM 50.0 °F - 33.1 °F 52% 30.16 in 10.0 mi NW 9.2 mph - N/A   Clear
7:53 AM 48.9 °F - 32.0 °F 52% 30.17 in 10.0 mi WNW 10.4 mph - N/A   Clear
9:53 AM 51.1 °F - 33.1 °F 50% 30.19 in 10.0 mi WNW 11.5 mph - N/A   Clear
10:53 AM 52.0 °F - 32.0 °F 47% 30.18 in 10.0 mi WNW 11.5 mph - N/A   Clear
11:53 AM 55.0 °F - 30.9 °F 40% 30.17 in 10.0 mi West 15.0 mph - N/A   Clear
12:53 PM 55.0 °F - 30.9 °F 40% 30.15 in 10.0 mi West 19.6 mph 23.0 mph N/A   Clear
1:53 PM 54.0 °F - 28.9 °F 38% 30.15 in 10.0 mi West 13.8 mph - N/A   Clear
2:53 PM 54.0 °F - 28.0 °F 37% 30.15 in 10.0 mi NW 12.7 mph 19.6 mph N/A   Clear
3:53 PM 51.1 °F - 26.1 °F 38% 30.19 in 10.0 mi NW 17.3 mph 23.0 mph N/A   Clear
4:53 PM 48.0 °F - 27.0 °F 44% 30.21 in 10.0 mi NNW 13.8 mph 23.0 mph N/A   Clear
5:53 PM 45.0 °F 39.3 °F 26.1 °F 48% 30.25 in 10.0 mi NNW 11.5 mph - N/A   Clear
6:53 PM 43.0 °F 36.8 °F 26.1 °F 51% 30.27 in 10.0 mi North 11.5 mph 20.7 mph N/A   Clear
7:53 PM 39.9 °F 31.8 °F 24.1 °F 53% 30.31 in 10.0 mi NNW 15.0 mph - N/A   Partly Cloudy
8:53 PM 37.9 °F 32.1 °F 21.9 °F 53% 30.33 in 10.0 mi North 8.1 mph - N/A   Clear
9:53 PM 37.0 °F 30.4 °F 21.0 °F 52% 30.34 in 10.0 mi NNW 9.2 mph - N/A   Clear
10:53 PM 36.0 °F 29.0 °F 21.0 °F 55% 30.33 in 10.0 mi North 9.2 mph - N/A   Clear
11:53 PM 36.0 °F 26.7 °F 19.9 °F 52% 30.32 in 10.0 mi North 15.0 mph 24.2 mph N/A   Clear